Date String (YYYY-MM-DD hh:mm:ss) UTC,Instrument flags,absolute air pressure of the measurement (hPa),sample flow rate (lpm),inlet stack bypass flow (lpm),air temperature of the measurement (°C),ambient temperature measured by the external sensor (°C),aerosol sample conditioner tube jacket temperature (°C),OPC LED temperature (°C),internal box temperature (°C),relative humidity of the measurement (%),span deviation,mass concentration of particles derived from Lorenz-Mie calculation of OPC scattering (μg/m³),mass concentration of particles derived from Lorenz-Mie calculation of OPC scattering (μg/m³),mass concentration of particles derived from Lorenz-Mie calculation of OPC scattering (μg/m³)
DateTimeUTC,F1_M11,P_M11,Q1_M11,Q2_M11,T1_M11,T2_M11,T3_M11,T4_M11,T5_M11,U1_M11,ZSPAN_M11,X2_M11,X0_M11,X1_M11
2023-07-16 07:00:00,SystemResetWarning,0833.8,4.98,000.00,029.5,026.3,000.0,037.8,031.0,26.8,0000.0,0006.47,0012.05,0005.73
2023-07-16 07:01:00,SystemResetWarning,0833.8,5.03,000.00,029.5,025.3,000.0,037.7,030.8,27.1,0000.0,0006.44,0012.25,0005.71
2023-07-16 07:02:00,SystemResetWarning,0833.8,4.99,000.00,029.3,025.2,000.0,037.7,030.5,27.4,0000.0,0006.41,0012.24,0005.71
2023-07-16 07:03:00,SystemResetWarning,0833.7,4.99,000.00,029.2,025.6,000.0,037.7,030.4,27.9,0000.0,0006.44,0012.56,0005.71
2023-07-16 07:04:00,SystemResetWarning,0833.7,5.01,000.00,029.2,026.0,000.0,037.7,030.5,27.7,0000.0,0006.46,0012.70,0005.72
2023-07-16 07:05:00,SystemResetWarning,0833.7,5.00,000.00,029.2,026.4,000.0,037.7,030.6,27.2,0000.0,0006.48,0012.70,0005.72
2023-07-16 07:06:00,SystemResetWarning,0833.7,5.00,000.00,029.2,026.7,000.0,037.8,030.6,28.0,0000.0,0006.43,0012.04,0005.71
2023-07-16 07:07:00,SystemResetWarning,0833.7,4.99,000.00,029.2,027.0,000.0,037.8,030.7,28.0,0000.0,0006.45,0012.26,0005.71
2023-07-16 07:08:00,SystemResetWarning,0833.8,5.00,000.00,029.2,027.3,000.0,037.7,030.7,27.2,0000.0,0006.48,0011.86,0005.72
2023-07-16 07:09:00,SystemResetWarning,0833.8,5.01,000.00,029.2,027.4,000.0,037.8,030.8,27.8,0000.0,0006.44,0011.64,0005.72
2023-07-16 07:10:00,SystemResetWarning,0833.8,5.00,000.00,029.3,027.6,000.0,037.8,030.8,28.6,0000.0,0006.43,0012.48,0005.72
2023-07-16 07:11:00,SystemResetWarning,0833.8,5.00,000.00,029.3,027.8,000.0,037.8,030.9,28.9,0000.0,0006.48,0012.78,0005.74
2023-07-16 07:12:00,SystemResetWarning,0833.8,5.00,000.00,029.3,027.9,000.0,037.8,030.9,28.5,0000.0,0006.56,0013.05,0005.77
2023-07-16 07:13:00,SystemResetWarning,0833.8,4.99,000.00,029.3,028.0,000.0,037.8,031.0,27.6,0000.0,0006.60,0013.11,0005.80
2023-07-16 07:14:00,SystemResetWarning,0833.8,4.99,000.00,029.4,028.1,000.0,037.8,031.0,26.1,0000.0,0006.60,0012.89,0005.81
2023-07-16 07:15:00,SystemResetWarning,0833.7,5.01,000.00,029.4,028.1,000.0,037.8,031.0,27.2,0000.0,0006.60,0012.76,0005.81
2023-07-16 07:16:00,SystemResetWarning,0833.8,5.01,000.00,029.4,028.2,000.0,037.8,031.1,27.2,0000.0,0006.61,0012.72,0005.85
2023-07-16 07:17:00,SystemResetWarning,0833.8,5.01,000.00,029.5,028.3,000.0,037.9,031.1,25.4,-000.7,0006.65,0012.73,0005.89
2023-07-16 07:18:00,SystemResetWarning,0833.8,4.99,000.00,029.5,028.3,000.0,037.9,031.1,24.8,-001.1,0006.68,0013.13,0005.91
2023-07-16 07:19:00,SystemResetWarning,0833.8,4.99,000.00,029.5,028.3,000.0,037.9,031.1,26.1,-001.1,0006.70,0013.13,0005.95
2023-07-16 07:20:00,SystemResetWarning,0833.8,5.00,000.00,029.5,028.4,000.0,037.9,031.2,25.7,-001.2,0006.76,0013.63,0005.98
2023-07-16 07:21:00,SystemResetWarning,0833.7,5.02,000.00,029.6,028.4,000.0,037.9,031.2,23.9,-000.9,0006.80,0012.93,0006.01
2023-07-16 07:22:00,SystemResetWarning,0833.8,5.00,000.00,029.6,028.4,000.0,038.0,031.2,24.3,-000.6,0006.81,0012.72,0006.05
2023-07-16 07:23:00,SystemResetWarning,0833.8,4.99,000.00,029.6,028.2,000.0,038.0,031.3,23.3,-000.5,0006.76,0012.83,0006.05
2023-07-16 07:24:00,SystemResetWarning,0833.8,4.99,000.00,029.6,026.3,000.0,037.9,031.1,21.6,-000.8,0006.70,0012.59,0006.02
2023-07-16 07:25:00,SystemResetWarning,0833.8,5.01,000.00,029.5,025.3,000.0,037.8,030.8,21.4,-001.1,0006.71,0013.33,0006.02
2023-07-16 07:26:00,SystemResetWarning,0833.8,5.01,000.00,029.4,025.2,000.0,037.8,030.5,21.0,-000.7,0006.75,0014.25,0006.05
2023-07-16 07:27:00,SystemResetWarning,0833.8,5.00,000.00,029.3,025.6,000.0,037.8,030.5,21.7,-000.6,0006.78,0014.76,0006.03
2023-07-16 07:28:00,SystemResetWarning,0833.8,5.00,000.00,029.3,026.0,000.0,037.8,030.6,22.1,-000.1,0006.75,0015.43,0005.97
2023-07-16 07:29:00,SystemResetWarning,0833.8,5.00,000.00,029.2,026.4,000.0,037.8,030.6,21.7,-000.5,0006.74,0015.26,0005.97
2023-07-16 07:30:00,SystemResetWarning,0833.8,5.01,000.00,029.2,026.7,000.0,037.8,030.7,21.5,0000.2,0006.68,0015.42,0005.94
2023-07-16 07:31:00,SystemResetWarning,0833.8,5.00,000.00,029.2,027.0,000.0,037.8,030.7,21.5,0000.9,0006.65,0015.52,0005.88
2023-07-16 07:32:00,SystemResetWarning,0833.8,5.00,000.00,029.2,027.3,000.0,037.8,030.8,21.2,0000.5,0006.57,0015.85,0005.80
2023-07-16 07:33:00,SystemResetWarning,0833.8,5.00,000.00,029.3,027.5,000.0,037.8,030.8,21.4,0000.3,0006.47,0015.66,0005.71
2023-07-16 07:34:00,SystemResetWarning,0833.7,5.00,000.00,029.3,027.6,000.0,037.8,030.9,22.9,0001.2,0006.36,0015.00,0005.61
2023-07-16 07:35:00,SystemResetWarning,0833.8,5.00,000.00,029.3,027.8,000.0,037.8,030.9,23.2,0000.2,0006.29,0014.95,0005.53
2023-07-16 07:36:00,SystemResetWarning,0833.9,4.99,000.00,029.3,027.9,000.0,037.8,030.9,23.0,0000.0,0006.15,0014.57,0005.41
2023-07-16 07:37:00,SystemResetWarning,0833.8,4.99,000.00,029.4,028.0,000.0,037.8,030.9,21.2,0000.0,0006.06,0014.04,0005.31
2023-07-16 07:38:00,SystemResetWarning,0833.8,5.00,000.00,029.4,028.1,000.0,037.8,031.0,20.2,0000.0,0005.92,0013.44,0005.23
2023-07-16 07:39:00,SystemResetWarning,0833.8,5.00,000.00,029.4,028.1,000.0,037.9,031.0,20.6,0000.0,0005.84,0012.76,0005.18
2023-07-16 07:40:00,SystemResetWarning,0833.9,5.01,000.00,029.4,028.2,000.0,037.9,031.1,20.7,0000.0,0005.74,0012.30,0005.09
2023-07-16 07:41:00,SystemResetWarning,0833.9,5.00,000.00,029.5,028.3,000.0,037.9,031.1,20.2,0000.0,0005.65,0012.14,0005.00
2023-07-16 07:42:00,SystemResetWarning,0833.9,4.99,000.00,029.5,028.3,000.0,037.9,031.1,20.6,0000.0,0005.57,0011.59,0004.93
2023-07-16 07:43:00,SystemResetWarning,0833.8,4.99,000.00,029.5,028.4,000.0,038.0,031.1,21.2,0000.0,0005.47,0010.76,0004.86
2023-07-16 07:44:00,SystemResetWarning,0833.8,5.00,000.00,029.6,028.4,000.0,038.0,031.2,24.0,0000.0,0005.39,0010.66,0004.81
2023-07-16 07:45:00,SystemResetWarning,0833.9,5.01,000.00,029.6,028.4,000.0,038.0,031.2,26.0,0000.0,0005.39,0010.56,0004.82
2023-07-16 07:46:00,SystemResetWarning,0833.9,5.00,000.00,029.6,028.5,000.0,038.0,031.3,25.2,0000.0,0005.38,0010.47,0004.84
2023-07-16 07:47:00,SystemResetWarning,0833.8,5.01,000.00,029.7,028.5,000.0,038.0,031.3,24.7,0000.0,0005.36,0009.90,0004.85
2023-07-16 07:48:00,SystemResetWarning,0833.9,5.01,000.00,029.7,028.6,000.0,038.1,031.3,24.5,0000.1,0005.31,0009.33,0004.83
2023-07-16 07:49:00,SystemResetWarning,0833.8,4.99,000.00,029.7,027.7,000.0,038.0,031.2,24.4,0000.1,0005.24,0009.53,0004.80
2023-07-16 07:50:00,SystemResetWarning,0833.8,5.00,000.00,029.6,025.7,000.0,037.9,031.0,26.3,0000.1,0005.21,0010.87,0004.79
2023-07-16 07:51:00,SystemResetWarning,0833.8,5.01,000.00,029.5,025.2,000.0,037.8,030.8,27.5,0000.1,0005.18,0011.23,0004.75
2023-07-16 07:52:00,SystemResetWarning,0833.8,5.00,000.00,029.4,025.4,000.0,037.8,030.6,27.8,-000.0,0005.16,0011.69,0004.73
2023-07-16 07:53:00,SystemResetWarning,0833.8,4.98,000.00,029.3,025.8,000.0,037.9,030.6,28.0,0000.0,0005.13,0011.79,0004.74
2023-07-16 07:54:00,SystemResetWarning,0833.8,5.01,000.00,029.3,026.2,000.0,037.9,030.6,28.0,0000.1,0005.19,0012.34,0004.80
2023-07-16 07:55:00,SystemResetWarning,0833.9,5.01,000.00,029.3,026.6,000.0,037.9,030.7,27.5,-000.1,0005.28,0012.58,0004.89
2023-07-16 07:56:00,SystemResetWarning,0833.9,5.01,000.00,029.3,026.9,000.0,037.9,030.8,27.0,-000.4,0005.37,0012.97,0004.98
2023-07-16 07:57:00,SystemResetWarning,0833.9,5.00,000.00,029.3,027.2,000.0,037.9,030.8,27.8,-000.9,0005.42,0013.15,0005.03
2023-07-16 07:58:00,SystemResetWarning,0833.8,5.00,000.00,029.3,027.4,000.0,037.9,030.9,27.8,-000.7,0005.56,0013.81,0005.11
2023-07-16 07:59:00,SystemResetWarning,0833.9,5.00,000.00,029.3,027.6,000.0,037.9,030.9,27.9,-000.9,0005.68,0014.80,0005.19
